Location: Veytaux
(46.4185°N, 6.9320°E)
Time: 08:13:09
(UTC+00:00)

Cosmos 2369 Rocket - Pass Details

Date: 27 May 2022
Orbit: 830 x 851 km, 71.0° (Epoch: 01 July)

Event Time Altitude Azimuth Distance (km) Brightness Sun altitude
Rises 01:35:11 0° 335° (NNW) 3,385 5.8 -16.6°
Reaches altitude 10° 01:37:40 10° 339° (NNW) 2,447 5.1 -16.4°
Maximum altitude 01:43:13 63° 60° (ENE) 928 2.6 -15.9°
Drops below altitude 10° 01:48:45 10° 141° (SE) 2,432 4.4 -15.3°
Sets 01:51:12 0° 145° (SE) 3,364 5.1 -15.1°
